Regional Weather Roundup
Issued by NWS

Home | Current Version | Previous Version | Graphics & Text | Print | Product List | Glossary Off
Versions: 1 2 3 4 5 6 7 8 9 10 11 12 13 14 15 16 17 18 19 20 21 22 23 24 25 26 27 28 29 30 31 32 33 34 35 36 37 38 39 40 41 42 43 44 45 46 47 48 49 50

000
ASUS43 KDMX 170407
RWRIA

WEATHER ROUNDUP FOR IOWA
NATIONAL WEATHER SERVICE DES MOINES IA
1100 PM CDT TUE SEP 16 2014

NOTE: "FAIR" INDICATES FEW OR NO CLOUDS BELOW 12,000 FEET WITH NO
SIGNIFICANT WEATHER AND/OR OBSTRUCTIONS TO VISIBILITY.

* - THESE STATIONS ARE NOT NWS STATIONS...THUS NOT UNDER NWS
QUALITY CONTROL.  THEY ALSO DO NOT REPORT WEATHER SUCH
AS PRECIPITATION OR FOG.

IAZ001>003-012>014-020>022-031>034-043>046-170500-
   NORTHWEST IOWA

CITY           SKY/WX    TMP DP  RH WIND       PRES   REMARKS
CARROLL *      CLEAR     50  48  93 S5        30.04R
CHEROKEE *     PTCLDY    52  50  93 SE6       30.01F
DENISON *      CLEAR     52  50  93 E6        30.01S
LE MARS *        N/A     61  50  67 S10       29.99F
ORANGE CITY *  CLOUDY    59  50  72 S3        30.00S
SHELDON *      CLOUDY    57  50  77 SE6G12    29.99S
SIOUX CITY     CLOUDY    57  52  83 SE6       29.99F
SPENCER        PTCLDY    53  47  79 S7        30.02R
STORM LAKE *   CLEAR     52  52 100 S8        30.02F
$$

IAZ055>058-069>071-079>083-090>094-170500-
   SOUTHWEST IOWA

CITY           SKY/WX    TMP DP  RH WIND       PRES   REMARKS
ATLANTIC *     MOCLDY    57  50  77 S6        30.03S
AUDUBON *      CLEAR     50  45  81 CALM      30.05S
CLARINDA *     CLOUDY    59  55  88 CALM      30.05F
COUNCIL BLFS * CLOUDY    61  54  77 SE7       30.01S
CRESTON *      CLEAR     54  50  87 S7        30.06S
HARLAN  *      CLOUDY    55  52  88 CALM      30.06F
LAMONI         PTCLDY    56  49  77 SE6       30.06S
SHENANDOAH *   CLOUDY    61  54  77 SE6       30.03F
$$

IAZ047>049-059>061-072>074-084-170500-
   CENTRAL IOWA

CITY           SKY/WX    TMP DP  RH WIND       PRES   REMARKS
AMES           CLEAR     49  48  97 CALM      30.05F
ANKENY *       CLEAR     50  50 100 CALM      30.06S
CHARITON *     CLEAR     52  50  93 SE5       30.06F
DES MOINES     PTCLDY    56  49  77 SE6       30.06F
GRINNELL*      CLEAR     50  46  87 SE3       30.08S
KNOXVILLE *    CLEAR     54  48  82 SE6       30.05F
MARSHALLTOWN   CLEAR     46  44  93 SE6       30.06S
PELLA *        CLEAR     50  48  93 CALM      30.08S
PERRY *          N/A     51  49  94 SE5       30.05S
$$

IAZ004>006-015-016-023>025-035-036-170500-
   NORTH CENTRAL IOWA

CITY           SKY/WX    TMP DP  RH WIND       PRES   REMARKS
ALGONA *       CLOUDY    55  48  76 S7        30.04R
CLARION *        N/A     54  46  76 S8        30.04F
ESTHERVILLE    PTCLDY    50  46  86 S7        30.02S
FORT DODGE *   PTCLDY    54  46  76 SE5       30.05S
MASON CITY     CLEAR     46  44  93 S8        30.05F
FOREST CITY *  CLOUDY    50  46  87 CALM      30.04S
IOWA FALLS *     N/A     48  45  87 S3        30.07S
$$

IAZ007>011-017>019-026>030-037>042-050>054-066-170500-
   NORTHEAST IOWA

CITY           SKY/WX    TMP DP  RH WIND       PRES   REMARKS
CEDAR RAPIDS   CLEAR     48  46  93 CALM      30.08R
CHARLES CITY * CLEAR     50  45  81 S7        30.06F
CLINTON *      CLEAR     45  41  87 CALM      30.11S
DECORAH *      CLEAR     50  45  81 CALM      30.06S
DUBUQUE        CLEAR     46  44  93 CALM      30.09S
MONTICELLO *   CLEAR     45  45 100 CALM      30.08S
OELWEIN *      CLEAR     48  45  87 SE5       30.08S
WATERLOO       CLEAR     46  43  89 E3        30.06S
$$

IAZ064-065-067-068-078-170500-
   EAST CENTRAL IOWA

CITY           SKY/WX    TMP DP  RH WIND       PRES   REMARKS
DAVENPORT      CLEAR     47  43  86 CALM      30.09S
IOWA CITY      CLEAR     50  47  89 CALM      30.09S
MT. PLEASANT * CLEAR     48  46  93 CALM      30.09S
MUSCATINE *    CLEAR     50  46  87 CALM      30.09S
QUAD CITIES    CLEAR     48  44  86 CALM      30.09S
$$

IAZ062-063-075>077-085>089-095>099-170500-
   SOUTHEAST IOWA

CITY           SKY/WX    TMP DP  RH WIND       PRES   REMARKS
BURLINGTON     CLEAR     48  47  96 CALM      30.09R
FAIRFIELD *    CLEAR     50  46  87 CALM      30.08S
FORT MADISON * CLEAR     52  48  87 CALM      30.09S
KEOKUK *       CLEAR     50  50 100 CALM      30.08S
OSKALOOSA *      N/A     52  48  87 SE5       30.08S
CENTERVILLE *  CLEAR     48  48 100 CALM      30.09S
OTTUMWA        CLEAR     50  47  89 S3        30.07S
WASHINGTON *   CLEAR     50  48  93 SE3       30.08S
$$

ABBREVIATIONS USED IN REMARKS
   TC - TEMPERATURES IN CELSIUS
  WCI - WIND CHILL INDEX
   HX - HEAT INDEX
  VSB - VISIBILITY
$$



USA.gov is the U.S. government's official web portal to all federal, state and local government web resources and services.